Tracking 27380 objects as of 6-Jun-2023
HD Live streaming from Space Station
objects crossing your sky now

ATLAS 5 CENTAUR DEB

Track ATLAS 5 CENTAUR DEB now!


NORAD ID: 53516
Int'l Code: 2014-055DM
Perigee: 8,678.3 km
Apogee: 35,141.1 km
Inclination: 20.7 °
Period: 788.9 minutes
Semi major axis: 28280 km
RCS: Unknown
Launch date: September 17, 2014
Source: United States (US)
Launch site: AIR FORCE EASTERN TEST RANGE (AFETR)

Note: This is SATELLITE DEBRIS
Your satellite tracking list
Your tracking list is empty




NASA's NSSDC Master Catalog

Two Line Element Set (TLE):
1 53516U 14055DP  23156.41797456 -.00000078  00000-0  00000-0 0  9991
2 53516  20.7419 259.1973 4678591 321.2582  13.1803  1.82543715  5854
Source of the keplerian elements: AFSPC